STARLINK-11264, 60906

Orbit data source: Space-Track

STARLINK-11264, 60906 is a payload satellite owned by SpaceX/Seattle (US) in LEO that was launched on Sat, 31 Aug 2024 UTC via an FALCON 9 launch vehicle from the Air Force Eastern Test Range (AFETR). Payload-class satellites include a variety of spacecraft equipped with specific instruments for various scientific and technological missions. These include communications satellites like Starlink; space stations such as the ISS; scientific satellites like the Hubble; Earth observation satellites from companies like Planet Labs, Umbra, and HawkEye 360; GPS; miniature CubeSats for education and research; and military/defense satellites.

Loading next visibility...
Identifier
60906, 2024-154D
Orbit
LEO
Country
Flag of USUS
Related business
Manufacturer
SpaceX/Seattle
Mission
Operational Commercial Communications
Bus & Motor
STARLINK V2MD, Unknown motor
Mass
960 kg wet, ~910 kg dry
Launch date (UTC)
2024-08-31 (2 years ago)
Launch vehicle
FALCON 9
Launch site
Air Force Eastern Test Range (AFETR)
Object type
Payload
Rocket body
Debris
Shape & HBR
Box + 2 Pan, 18.1 m
Radar Cross Section
36.964 m², Large (>1 m²)

Expand to show TLE details & history
Last TLE update: 2 days ago

TLE from 2 days ago
0 STARLINK-11264
1 60906U 24154D   26174.71625136  .00000577  00000-0  96241-5 0  9994
2 60906  53.1586 328.8424 0001017  64.1043 296.0080 15.69705089105167
Epoch: 2026-06-23T17:11Z
TLE epoch observation values (Epoch: 2026-06-23T17:11:24.117Z)
Latitude
0.00001°
Longitude
159.10809°
Altitude
360.355 km
Speed
7.694 km/s
True Right ascension
21h 55m 22s
True Declination
0° 00' 00"
Sunlit
Object was in full shadow at epoch
Visualization orbit readout
Latitude
Unknown
Longitude
Unknown
Altitude
Unknown
Speed
Unknown
Apparent Right ascension
Unknown
Apparent Declination
Unknown
Sunlit
N/A
Visualization observer readout
Local Sidereal Time
16:57:44
Azimuth
Unknown
Elevation
Unknown
Doppler factor
Unknown
Orbital elements
Apogee altitude
360.687 km
Perigee altitude
359.316 km
Semi-major axis
6,738.139 km
Eccentricity
0.0001
Inclination
53.1586°
RAAN
328.8424°
Arg. of periapsis
64.1043°
True anomaly
295.99753°
Mean anomaly
296.008°
Eccentric anomaly
296.00276°
Mean motion
3.92404 °/min
Orbital period
91.74 mins
BSTAR
0.0000096241
Loading maneuver chart data...
Computing Atmospheric mass density...
Loading historical data...
Loading historical data...
Loading historical data...
Loading historical data...
Loading historical data...
Loading historical data...
Loading historical data...

Documentation

Showing up to 5 results
|